User: anonymous   Login
Location: Batang Balui
(2.7000°N, 113.7833°E)
Time: 04:41:56
(UTC+00:00)
Language:

TIGRISAT - Orbit

View from above orbital plane
View from above orbital plane
View from above satellite
View from above satellite

Ground track
Ground track

The orbit data is extracted from the following two-line orbital elements,

1 40043U 14033AK  23087.46180391  .00002834  00000-0  40724-3 0  9991
2 40043  97.6616 266.6146 0057155 316.5550  43.1163 14.76079851471500
Epoch (UTC): 28 March 2023 11:04:59
Eccentricity: 0.0057155
inclination: 97.6616°
perigee height: 601 km
apogee height: 682 km
right ascension of ascending node: 266.6146°
argument of perigee: 316.5550°
revolutions per day: 14.76079851
mean anomaly at epoch: 43.1163°
orbit number at epoch: 47150

The dashed part of the orbit path shows where the satellite is in the earth's shadow,  

DLR